Location: Alsip
(41.6689°N, 87.7387°W)
Time: 14:09:17
(UTC+00:00)

Spot 4 - Pass Details

Date: 14 July 2020
Orbit: 705 x 723 km, 98.3° (Epoch: 05 August)

Event Time Altitude Azimuth Distance (km) Brightness Sun altitude
Exits shadow 05:13:53 56° 264° (W) 836 4.1 -25.9°
Drops below altitude 10° 05:18:30 10° 338° (NNW) 2,182 7.3 -26.1°
Sets 05:20:49 0° 343° (NNW) 3,105 8.5 -26.2°
